Location: Unspecified
(51.0950°N, 12.9690°E)
Time: 22:41:57
(UTC+00:00)

Cosmos 407 Rocket - Pass Details

Date: 28 October 2021
Orbit: 742 x 787 km, 74.0° (Epoch: 01 December)

Event Time Altitude Azimuth Distance (km) Brightness Sun altitude
Rises 17:20:19 0° 335° (NNW) 3,275 7.1 -14.8°
Reaches altitude 10° 17:22:43 10° 337° (NNW) 2,348 6.3 -15.2°
Maximum altitude 17:28:05 80° 65° (ENE) 803 3.5 -16.0°
Drops below altitude 10° 17:33:26 10° 153° (SSE) 2,344 5.8 -16.9°
Sets 17:35:49 0° 154° (SSE) 3,269 6.5 -17.2°
